PA3DZX-13 Weather Reports


Display with metric or nautical units.
time (UTC)temp
F
wind
direction
speed
MPH
gust
MPH
rain 1hr
in
rain 24hr
in
rain mn
in
humidity
%
barometer
mb
20260505232456 46 11 11.0 15.0 0.00 0.00 0.00 96 1009.0
20260505230955 48 12 11.0 15.0 0.00 0.00 0.00 95 1009.1
20260505225455 48 13 8.0 13.0 0.00 0.00 0.00 95 1009.1
20260505223955 48 9 8.0 13.0 0.00 0.00 0.00 95 1009.1
20260505222455 48 9 8.0 13.0 0.00 0.00 0.00 94 1009.2
20260505220954 48 9 11.0 15.0 0.00 0.00 0.00 92 1009.3
20260505215453 48 7 8.0 15.0 0.00 0.00 0.00 91 1009.3
20260505213953 50 9 8.0 15.0 0.00 0.00 0.00 88 1009.5
20260505212453 50 18 11.0 17.0 0.00 0.00 0.00 87 1009.5
20260505210953 50 7 11.0 20.0 0.00 0.00 0.00 85 1009.6
20260505205452 50 12 8.0 15.0 0.00 0.00 0.00 84 1009.5
20260505203951 50 19 11.0 15.0 0.00 0.00 0.00 83 1009.5
20260505202451 50 14 8.0 15.0 0.00 0.00 0.00 82 1009.5
20260505200951 51 10 8.0 15.0 0.00 0.00 0.00 82 1009.4
20260505195450 51 11 6.0 13.0 0.00 0.00 0.00 82 1009.4
20260505193949 51 10 6.0 11.0 0.00 0.00 0.00 83 1009.3
20260505192448 51 1 6.0 11.0 0.00 0.00 0.00 82 1009.2
20260505190948 51 5 6.0 11.0 0.00 0.00 0.00 83 1009.1
20260505185447 51 4 6.0 11.0 0.00 0.00 0.00 83 1009.2
20260505183947 51 4 6.0 11.0 0.00 0.00 0.00 83 1009.2
20260505182446 51 5 6.0 8.0 0.00 0.00 0.00 84 1009.2
20260505180945 51 12 4.0 8.0 0.00 0.00 0.00 85 1009.2
20260505175445 51 14 6.0 8.0 0.00 0.00 0.00 85 1009.2
20260505173944 51 13 6.0 8.0 0.00 0.00 0.00 86 1009.3
20260505172444 51 6 6.0 8.0 0.00 0.00 0.00 86 1009.3
20260505170943 51 10 6.0 8.0 0.00 0.00 0.00 85 1009.5
20260505165443 51 8 6.0 8.0 0.00 0.00 0.00 86 1009.5
20260505163942 51 22 4.0 11.0 0.00 0.00 0.00 86 1009.6
20260505162441 51 23 6.0 11.0 0.00 0.00 0.00 85 1009.6
20260505160940 51 36 6.0 11.0 0.00 0.00 0.00 85 1009.6
20260505152439 51 30 8.0 13.0 0.00 0.00 0.00 86 1010.0
20260505150938 50 28 11.0 13.0 0.00 0.00 0.00 86 1010.0
20260505123932 50 19 8.0 13.0 0.00 0.00 0.00 91 1011.0
20260505122432 50 28 6.0 13.0 0.00 0.00 0.00 93 1011.0
20260505120931 50 39 8.0 15.0 0.00 0.00 0.00 93 1011.1
20260505115430 48 32 11.0 15.0 0.00 0.00 0.00 94 1011.2
20260505113929 48 31 11.0 15.0 0.00 0.00 0.00 95 1011.2
20260505112429 48 41 8.0 15.0 0.00 0.00 0.00 91 1011.4
20260505110929 48 29 11.0 15.0 0.00 0.00 0.00 92 1011.4
20260505100927 48 22 8.0 15.0 0.00 0.00 0.00 94 1011.6
20260505095427 48 38 11.0 17.0 0.00 0.00 0.00 93 1011.6
20260505093926 48 30 11.0 20.0 0.00 0.00 0.00 92 1011.7
20260505092426 46 28 11.0 17.0 0.00 0.00 0.00 93 1011.5
20260505090926 46 25 11.0 17.0 0.00 0.00 0.00 93 1011.6
20260505085425 46 18 8.0 15.0 0.00 0.00 0.00 95 1011.7
20260505083924 46 24 11.0 15.0 0.00 0.00 0.00 95 1011.8
20260505082423 46 21 8.0 15.0 0.00 0.00 0.00 94 1011.9
20260505080923 46 19 8.0 17.0 0.00 0.00 0.00 95 1011.7
20260505075422 46 18 11.0 17.0 0.00 0.00 0.00 95 1011.8
20260505073922 46 21 8.0 13.0 0.00 0.00 0.00 96 1011.9
20260505072421 46 22 8.0 13.0 0.00 0.00 0.00 96 1011.9
20260505070921 46 22 8.0 13.0 0.00 0.00 0.00 96 1011.9
20260505065419 46 22 8.0 13.0 0.00 0.00 0.00 96 1011.9
20260505063919 46 27 8.0 15.0 0.00 0.00 0.00 97 1011.8
20260505062420 46 24 8.0 15.0 0.00 0.00 0.00 97 1011.8
20260505060919 44 19 8.0 13.0 0.00 0.00 0.00 97 1011.7
20260505055418 44 19 8.0 13.0 0.00 0.00 0.00 98 1011.7
20260505053917 46 25 11.0 13.0 0.00 0.00 0.00 97 1011.6
20260505052417 46 27 8.0 13.0 0.00 0.00 0.00 97 1011.6
20260505050917 46 28 8.0 13.0 0.00 0.00 0.00 97 1011.6
20260505040914 46 28 11.0 17.0 0.06 0.00 0.00 97 1011.5
20260505035413 46 21 8.0 13.0 0.06 0.00 0.00 98 1011.6
20260505033912 46 24 8.0 15.0 0.10 0.00 0.00 97 1011.8
20260505032412 46 18 8.0 15.0 0.08 0.00 0.00 98 1011.7
20260505030912 48 10 8.0 15.0 0.12 0.00 0.00 98 1011.6
20260505025412 48 12 11.0 15.0 0.11 0.00 0.00 97 1011.6
20260505023911 50 358 8.0 13.0 0.07 0.00 0.00 99 1011.7
20260505022412 50 351 8.0 13.0 0.06 0.00 0.00 99 1011.7
20260505020911 50 2 8.0 11.0 0.11 0.00 0.00 99 1011.7
20260505015411 51 8 6.0 11.0 0.11 0.00 0.00 99 1011.7
20260505013910 51 14 6.0 11.0 0.04 0.00 0.00 99 1011.8
20260505012409 51 9 6.0 8.0 0.04 0.00 0.00 99 1011.8
20260505010909 51 15 6.0 11.0 0.03 0.00 0.00 99 1011.9
20260505005409 51 13 6.0 11.0 0.02 0.00 0.00 99 1011.9
20260505003909 51 9 6.0 11.0 0.02 0.00 0.00 98 1012.1
20260505002409 51 3 6.0 11.0 0.01 0.00 0.00 98 1012.3
20260505000908 51 0 6.0 11.0 0.02 0.00 0.00 97 1012.3
20260504235408 51 11 6.0 11.0 0.04 0.00 0.00 97 1012.4